Hourly Weather Chaberkowo

Today, 25 June, Friday

Time Temperature Precipitation Wind Pressure Humidity
00:00 +20°C° 0.2 mm 1 mps 747 mmHg 98%
01:00 +19°C° 0 mm 2 mps 747 mmHg 98%
02:00 +19°C° 0 mm 2 mps 747 mmHg 98%
03:00 +19°C° 0 mm 2 mps 747 mmHg 98%
04:00 +18°C° 0 mm 2 mps 747 mmHg 98%
05:00 +18°C° 0 mm 2 mps 747 mmHg 97%
06:00 +18°C° 0 mm 3 mps 747 mmHg 96%
07:00 +18°C° 0 mm 3 mps 747 mmHg 95%
08:00 +19°C° 0 mm 3 mps 748 mmHg 90%
09:00 +20°C° 0 mm 3 mps 748 mmHg 85%
10:00 +21°C° 0 mm 2 mps 748 mmHg 79%
11:00 +21°C° 0 mm 2 mps 748 mmHg 79%
12:00 +21°C° 0 mm 2 mps 748 mmHg 79%
13:00 +21°C° 0 mm 2 mps 748 mmHg 78%
14:00 +21°C° 0 mm 2 mps 748 mmHg 77%
15:00 +21°C° 0 mm 2 mps 748 mmHg 75%
16:00 +21°C° 0 mm 3 mps 748 mmHg 73%
17:00 +21°C° 0 mm 2 mps 748 mmHg 76%
18:00 +20°C° 0 mm 2 mps 748 mmHg 80%
19:00 +19°C° 0 mm 2 mps 748 mmHg 84%
20:00 +18°C° 0 mm 2 mps 748 mmHg 87%
21:00 +17°C° 0 mm 2 mps 748 mmHg 90%
22:00 +15°C° 0 mm 2 mps 748 mmHg 94%
23:00 +15°C° 0 mm 2 mps 748 mmHg 93%

Tomorrow, 26 June, Saturday

Time Temperature Precipitation Wind Pressure Humidity
00:00 +14°C° 0 mm 2 mps 748 mmHg 93%
01:00 +14°C° 0 mm 2 mps 748 mmHg 92%
02:00 +14°C° 0 mm 2 mps 748 mmHg 92%
03:00 +13°C° 0 mm 2 mps 748 mmHg 92%
04:00 +13°C° 0 mm 2 mps 749 mmHg 92%
05:00 +15°C° 0 mm 2 mps 749 mmHg 84%
06:00 +17°C° 0 mm 2 mps 749 mmHg 75%
07:00 +19°C° 0 mm 2 mps 750 mmHg 67%
08:00 +20°C° 0 mm 2 mps 750 mmHg 63%
09:00 +22°C° 0 mm 3 mps 750 mmHg 60%
10:00 +24°C° 0 mm 3 mps 750 mmHg 56%
11:00 +24°C° 0 mm 3 mps 750 mmHg 56%
12:00 +24°C° 0 mm 3 mps 749 mmHg 56%
13:00 +24°C° 0 mm 3 mps 749 mmHg 56%
14:00 +24°C° 0 mm 3 mps 749 mmHg 57%
15:00 +24°C° 0 mm 3 mps 749 mmHg 58%
16:00 +22°C° 0 mm 3 mps 749 mmHg 60%
17:00 +21°C° 0 mm 2 mps 749 mmHg 65%
18:00 +21°C° 0 mm 2 mps 749 mmHg 70%
19:00 +20°C° 0 mm 2 mps 749 mmHg 75%
20:00 +19°C° 0 mm 2 mps 749 mmHg 78%
21:00 +18°C° 0 mm 2 mps 750 mmHg 81%
22:00 +17°C° 0 mm 2 mps 750 mmHg 84%
23:00 +16°C° 0 mm 2 mps 750 mmHg 86%

Day after tomorrow, 27 June, Sunday

Time Temperature Precipitation Wind Pressure Humidity
00:00 +15°C° 0 mm 2 mps 750 mmHg 88%
01:00 +15°C° 0 mm 2 mps 750 mmHg 90%
02:00 +14°C° 0 mm 2 mps 750 mmHg 92%
03:00 +14°C° 0 mm 1 mps 750 mmHg 93%
04:00 +14°C° 0 mm 1 mps 750 mmHg 94%
05:00 +15°C° 0 mm 1 mps 750 mmHg 86%
06:00 +18°C° 0 mm 1 mps 750 mmHg 77%
07:00 +20°C° 0 mm 1 mps 750 mmHg 68%
08:00 +20°C° 0 mm 2 mps 750 mmHg 62%
09:00 +23°C° 0 mm 2 mps 750 mmHg 56%
10:00 +24°C° 0 mm 3 mps 750 mmHg 50%
11:00 +24°C° 0 mm 3 mps 750 mmHg 48%
12:00 +25°C° 0 mm 3 mps 750 mmHg 45%
13:00 +26°C° 0 mm 3 mps 750 mmHg 42%
14:00 +26°C° 0 mm 3 mps 749 mmHg 43%
15:00 +25°C° 0 mm 3 mps 749 mmHg 45%
16:00 +25°C° 0 mm 3 mps 749 mmHg 46%
17:00 +24°C° 0 mm 2 mps 749 mmHg 55%
18:00 +23°C° 0 mm 2 mps 749 mmHg 63%
19:00 +21°C° 0 mm 1 mps 749 mmHg 72%
20:00 +20°C° 0 mm 1 mps 749 mmHg 77%
21:00 +19°C° 0 mm 1 mps 749 mmHg 81%
22:00 +18°C° 0 mm 1 mps 749 mmHg 86%
23:00 +18°C° 0 mm 1 mps 749 mmHg 85%

28 June, Monday

Time Temperature Precipitation Wind Pressure Humidity
00:00 +18°C° 0 mm 1 mps 750 mmHg 84%
01:00 +18°C° 0 mm 1 mps 750 mmHg 84%
02:00 +15°C° 0 mm 0 mps 749 mmHg 85%
03:00 +15°C° 0 mm 0 mps 749 mmHg 86%
04:00 +15°C° 0 mm 0 mps 749 mmHg 87%
05:00 +16°C° 0 mm 0 mps 749 mmHg 80%
06:00 +18°C° 0 mm 0 mps 749 mmHg 73%
07:00 +19°C° 0 mm 0 mps 750 mmHg 67%
08:00 +21°C° 0 mm 0 mps 750 mmHg 61%
09:00 +24°C° 0 mm 1 mps 750 mmHg 55%
10:00 +26°C° 0 mm 1 mps 750 mmHg 50%
11:00 +26°C° 0 mm 2 mps 749 mmHg 47%
12:00 +27°C° 0 mm 2 mps 749 mmHg 44%
13:00 +27°C° 0 mm 3 mps 749 mmHg 41%
14:00 +27°C° 0 mm 3 mps 749 mmHg 43%
15:00 +27°C° 0 mm 3 mps 749 mmHg 45%
16:00 +27°C° 0 mm 3 mps 749 mmHg 48%
17:00 +25°C° 0 mm 2 mps 749 mmHg 56%
18:00 +24°C° 0 mm 2 mps 749 mmHg 65%
19:00 +21°C° 0 mm 2 mps 749 mmHg 73%
20:00 +20°C° 0 mm 2 mps 748 mmHg 79%
21:00 +19°C° 0 mm 1 mps 748 mmHg 85%
22:00 +18°C° 0 mm 1 mps 748 mmHg 91%
23:00 +18°C° 0 mm 1 mps 748 mmHg 91%

29 June, Tuesday

Time Temperature Precipitation Wind Pressure Humidity
00:00 +16°C° 0 mm 1 mps 748 mmHg 91%
01:00 +15°C° 0 mm 0 mps 748 mmHg 91%
02:00 +16°C° 0 mm 1 mps 748 mmHg 91%
03:00 +16°C° 0 mm 1 mps 748 mmHg 91%
04:00 +16°C° 0 mm 1 mps 748 mmHg 90%
05:00 +19°C° 0 mm 1 mps 748 mmHg 82%
06:00 +21°C° 0 mm 1 mps 748 mmHg 74%
07:00 +21°C° 0 mm 0 mps 748 mmHg 66%
08:00 +25°C° 0 mm 1 mps 747 mmHg 60%
09:00 +26°C° 0 mm 1 mps 747 mmHg 54%
10:00 +28°C° 0 mm 1 mps 747 mmHg 48%
11:00 +28°C° 0 mm 1 mps 747 mmHg 45%
12:00 +29°C° 0 mm 2 mps 746 mmHg 42%
13:00 +30°C° 0 mm 2 mps 746 mmHg 40%
14:00 +29°C° 0 mm 2 mps 746 mmHg 41%
15:00 +29°C° 0 mm 2 mps 746 mmHg 43%
16:00 +29°C° 0 mm 2 mps 745 mmHg 44%
17:00 +27°C° 0 mm 2 mps 745 mmHg 52%
18:00 +26°C° 0 mm 2 mps 745 mmHg 59%
19:00 +24°C° 0 mm 2 mps 745 mmHg 67%
20:00 +23°C° 0 mm 1 mps 745 mmHg 71%
21:00 +22°C° 0 mm 1 mps 745 mmHg 76%
22:00 +20°C° 0 mm 1 mps 745 mmHg 80%
23:00 +20°C° 0 mm 1 mps 745 mmHg 82%

30 June, Wednesday

Time Temperature Precipitation Wind Pressure Humidity
00:00 +19°C° 0 mm 1 mps 745 mmHg 84%
01:00 +18°C° 0 mm 1 mps 745 mmHg 86%
02:00 +18°C° 0 mm 1 mps 745 mmHg 86%
03:00 +18°C° 0 mm 1 mps 745 mmHg 87%
04:00 +18°C° 0 mm 1 mps 744 mmHg 87%
05:00 +20°C° 0 mm 1 mps 744 mmHg 80%
06:00 +22°C° 0 mm 1 mps 745 mmHg 73%
07:00 +23°C° 0 mm 2 mps 745 mmHg 66%
08:00 +25°C° 0 mm 2 mps 745 mmHg 59%
09:00 +26°C° 0 mm 2 mps 745 mmHg 53%
10:00 +28°C° 0 mm 2 mps 745 mmHg 46%
11:00 +28°C° 0 mm 2 mps 745 mmHg 43%
12:00 +29°C° 0 mm 2 mps 744 mmHg 40%
13:00 +29°C° 0 mm 3 mps 744 mmHg 37%
14:00 +29°C° 0 mm 3 mps 744 mmHg 38%
15:00 +29°C° 0 mm 3 mps 744 mmHg 39%
16:00 +28°C° 0 mm 3 mps 744 mmHg 41%
17:00 +27°C° 0 mm 3 mps 744 mmHg 49%
18:00 +25°C° 0 mm 2 mps 744 mmHg 58%
19:00 +23°C° 0 mm 2 mps 745 mmHg 67%
20:00 +21°C° 0 mm 2 mps 745 mmHg 73%
21:00 +19°C° 0 mm 2 mps 745 mmHg 79%
22:00 +18°C° 0 mm 2 mps 745 mmHg 85%
23:00 +17°C° 0 mm 2 mps 745 mmHg 86%
Show more

We Need Your Consent

Meteoprog and our Service Providers may store and access personal data such as cookies, device identifiers or other similar technologies on your device and process such data to personalise content and ads, as well as provide social media features and to analyse the traffic.

  • Store and/or access information on your device

    Cookies, device identifiers or other information can be stored or accessed on your device for the purposes indicated above.

  • Personalised ads and content, ad and content measurement, audience insights, and products development

    Ads and content can be personalised based on a profile. More data can be added to better personalise ads and content. Ad and content performance can be measured. Insights about the audience who saw the ads and content can be derived. Such data can be used to develop or improve user’s experience, systems and software.

By clicking ‘I Agree’ you will allow the use of indicated cookies, device identifiers, web beacons or other similar technologies. Your settings can be changed in the browser on your device.

For certain purposes, legitimate interests may be relied on, rather than consent. You can read more about this in our Privacy and Cookie Policy.